Terminal Aerodrome Forecast
Issued by NWS

Home | Current Version | Previous Version | Text Only | Print | Product List | Glossary On
Versions: 1 2 3 4 5 6 7 8 9 10 11 12 13 14 15 16 17 18 19 20 21 22 23 24 25 26 27 28 29 30 31 32 33 34
000
FTUS41 KOKX 302340
TAFTEB
TAF
KTEB 302340Z 0100/0124 12007KT P6SM SCT012 OVC025
     FM010300 12005KT P6SM FEW008 OVC015
     FM010500 12005KT 4SM BR FEW003 OVC006
     FM010700 11004KT 1SM -DZ BR OVC004
     FM010900 VRB03KT 1/2SM -DZ FG OVC003
     FM011400 19009KT 4SM BR BKN010 OVC015
     FM011800 21014G22KT P6SM BKN035
     FM012000 19018G30KT P6SM SCT035 SCT250
     FM012300 17015KT P6SM SCT035 SCT250=

USA.gov is the U.S. government's official web portal to all federal, state and local government web resources and services.